GW3653 Weather Reports


Display with metric or nautical units.
time (UTC)temp
F
wind
direction
speed
MPH
gust
MPH
rain 1hr
in
rain 24hr
in
rain mn
in
humidity
%
barometer
mb
20260906010538 57 135 1.0 11.0 0.00 0.49 0.11 74 1026.9
20260906005537 57 180 3.0 14.0 0.00 0.49 0.11 71 1026.8
20260906004518 57 135 1.0 6.0 0.00 0.49 0.11 73 1026.7
20260906003517 56 113 1.0 7.0 0.00 0.49 0.11 73 1026.5
20260906002518 56 135 2.0 10.0 0.00 0.49 0.11 73 1026.3
20260906001517 56 158 1.0 11.0 0.00 0.49 0.11 75 1026.2
20260906000517 56 135 2.0 9.0 0.00 0.49 0.11 76 1025.9
20260905235517 56 135 1.0 7.0 0.00 0.49 0.11 75 1025.9
20260905234557 55 135 2.0 10.0 0.00 0.49 0.11 75 1025.6
20260905233517 55 0.0 4.0 0.00 0.49 0.11 76 1025.5
20260905232517 55 180 1.0 6.0 0.00 0.49 0.11 76 1025.3
20260905231538 55 135 1.0 4.0 0.00 0.49 0.11 77 1025.1
20260905230557 55 135 1.0 11.0 0.00 0.49 0.11 76 1024.9
20260905225518 55 135 1.0 7.0 0.00 0.49 0.11 77 1024.7
20260905224518 55 135 2.0 13.0 0.00 0.49 0.11 77 1024.3
20260905223518 55 135 2.0 10.0 0.00 0.49 0.11 79 1024.2
20260905222517 55 135 3.0 13.0 0.00 0.49 0.11 79 1024.0
20260905221517 55 135 1.0 7.0 0.00 0.49 0.11 80 1023.8
20260905220517 55 135 3.0 12.0 0.00 0.49 0.11 80 1023.6
20260905215517 55 135 3.0 11.0 0.00 0.49 0.11 81 1023.4
20260905214517 54 135 1.0 6.0 0.00 0.49 0.11 84 1023.3
20260905213517 54 113 2.0 13.0 0.00 0.49 0.11 84 1023.1
20260905212517 54 135 3.0 11.0 0.00 0.49 0.11 85 1022.8
20260905211517 54 135 1.0 10.0 0.00 0.49 0.11 86 1022.7
20260905210539 54 203 3.0 13.0 0.00 0.49 0.11 87 1022.5
20260905205517 53 135 2.0 10.0 0.00 0.49 0.11 91 1022.3
20260905204517 52 135 2.0 9.0 0.00 0.49 0.11 93 1022.1
20260905203519 52 158 2.0 12.0 0.00 0.49 0.11 94 1021.9
20260905202519 52 135 1.0 10.0 0.00 0.49 0.11 94 1021.7
20260905201539 52 135 3.0 13.0 0.00 0.49 0.11 94 1021.2
20260905200519 52 225 2.0 10.0 0.00 0.49 0.11 94 1021.0
20260905195519 52 203 2.0 13.0 0.00 0.49 0.11 94 1021.0
20260905194519 53 225 3.0 9.0 0.00 0.49 0.11 94 1020.7
20260905193519 53 135 2.0 10.0 0.00 0.49 0.11 94 1020.6
20260905192519 53 158 1.0 3.0 0.00 0.49 0.11 94 1020.5
20260905191519 53 0.0 2.0 0.00 0.49 0.11 94 1020.2
20260905190519 53 225 1.0 11.0 0.00 0.49 0.11 94 1020.0
20260905185519 54 158 1.0 7.0 0.00 0.49 0.11 94 1019.8
20260905184519 54 203 1.0 6.0 0.01 0.49 0.11 94 1019.5
20260905183519 54 158 1.0 7.0 0.05 0.49 0.11 94 1019.4
20260905182519 54 203 1.0 10.0 0.07 0.49 0.11 94 1019.4
20260905181518 54 203 1.0 7.0 0.09 0.49 0.11 94 1019.2
20260905180520 54 0.0 5.0 0.09 0.49 0.11 94 1019.2
20260905175518 55 203 1.0 4.0 0.10 0.49 0.11 94 1019.2
20260905174519 55 180 1.0 6.0 0.09 0.48 0.10 94 1019.1
20260905173620 55 203 1.0 5.0 0.06 0.44 0.06 94 1019.0
20260905172519 55 0.0 2.0 0.03 0.42 0.04 94 1018.9
20260905171518 55 0.0 2.0 0.01 0.39 0.02 94 1018.9
20260905170519 54 0.0 1.0 0.02 0.39 0.02 94 1018.8
20260905165519 54 0.0 0.0 0.01 0.39 0.01 94 1018.6
20260905164518 54 0.0 0.0 0.01 0.39 0.01 94 1018.4
20260905163519 54 0.0 0.0 0.02 0.39 0.01 94 1018.3
20260905162518 54 0.0 0.0 0.05 0.39 0.01 93 1018.3
20260905161518 54 0.0 2.0 0.17 0.39 0.01 93 1018.2
20260905160540 55 135 1.0 10.0 0.28 0.38 0.00 93 1018.1
20260905155519 55 0.0 0.0 0.30 0.38 0.38 93 1017.9
20260905153519 56 0.0 1.0 0.30 0.37 0.37 93 1017.8
20260905152519 56 0.0 0.0 0.27 0.34 0.34 93 1017.7
20260905151519 56 0.0 2.0 0.16 0.22 0.22 93 1017.6
20260905150519 56 0.0 4.0 0.06 0.10 0.10 92 1017.5
20260905145518 56 0.0 0.0 0.04 0.08 0.08 92 1017.3
20260905144518 56 0.0 0.0 0.04 0.07 0.07 92 1017.3
20260905143519 56 0.0 0.0 0.04 0.07 0.07 91 1017.3
20260905142519 56 0.0 0.0 0.06 0.07 0.07 91 1017.3
20260905141518 56 0.0 0.0 0.06 0.06 0.06 91 1017.1
20260905140519 56 0.0 0.0 0.05 0.05 0.05 91 1017.2
20260905135519 56 0.0 0.0 0.04 0.04 0.04 91 1017.1
20260905134519 56 0.0 0.0 0.03 0.03 0.03 91 1017.0
20260905133519 55 0.0 0.0 0.03 0.03 0.03 91 1016.8
20260905132518 55 0.0 0.0 0.02 0.02 0.02 90 1016.8
20260905131538 55 0.0 0.0 0.00 0.00 0.00 90 1016.7
20260905130519 55 0.0 0.0 0.00 0.00 0.00 90 1016.5
20260905125519 56 0.0 0.0 0.00 0.00 0.00 90 1016.4
20260905124518 55 0.0 0.0 0.00 0.00 0.00 90 1016.2
20260905123518 55 0.0 0.0 0.00 0.00 0.00 90 1016.1
20260905122519 55 0.0 0.0 0.00 0.00 0.00 89 1015.8
20260905121518 55 0.0 0.0 0.00 0.00 0.00 89 1015.8
20260905120539 56 0.0 0.0 0.00 0.00 0.00 89 1015.7
20260905115519 56 0.0 0.0 0.00 0.00 0.00 88 1015.6
20260905114518 56 0.0 0.0 0.00 0.00 0.00 88 1015.5
20260905113519 57 0.0 0.0 0.00 0.00 0.00 88 1015.4
20260905112518 57 0.0 0.0 0.00 0.00 0.00 88 1015.5
20260905111538 58 0.0 0.0 0.00 0.00 0.00 88 1015.4
20260905110519 58 0.0 0.0 0.00 0.00 0.00 88 1015.4
20260905105518 58 0.0 0.0 0.00 0.00 0.00 87 1015.2
20260905104518 58 0.0 0.0 0.00 0.00 0.00 86 1015.1
20260905103518 59 0.0 0.0 0.00 0.00 0.00 86 1014.9
20260905102518 59 0.0 0.0 0.00 0.00 0.00 85 1014.8
20260905101518 59 0.0 1.0 0.00 0.00 0.00 84 1014.6
20260905100518 60 0.0 2.0 0.00 0.00 0.00 83 1014.6
20260905095518 62 248 1.0 7.0 0.00 0.00 0.00 78 1014.6
20260905094518 63 0.0 0.0 0.00 0.00 0.00 74 1014.4
20260905093518 63 0.0 1.0 0.00 0.00 0.00 73 1014.3
20260905092518 64 0.0 0.0 0.00 0.00 0.00 73 1014.1
20260905091518 64 0.0 2.0 0.00 0.00 0.00 71 1013.9
20260905090518 65 0.0 0.0 0.00 0.00 0.00 70 1013.8
20260905085518 66 0.0 8.0 0.00 0.00 0.00 68 1013.5
20260905084518 67 0.0 2.0 0.00 0.00 0.00 67 1013.4
20260905083518 66 0.0 2.0 0.00 0.00 0.00 68 1013.4
20260905082518 66 0.0 2.0 0.00 0.00 0.00 67 1013.4
20260905081538 67 0.0 3.0 0.00 0.00 0.00 66 1013.2
20260905080518 67 0.0 5.0 0.00 0.00 0.00 65 1013.1
20260905075518 68 0.0 4.0 0.00 0.00 0.00 64 1013.2
20260905074518 69 0.0 5.0 0.00 0.00 0.00 63 1013.3
20260905073518 69 0.0 9.0 0.00 0.00 0.00 63 1013.2
20260905072538 68 248 1.0 10.0 0.00 0.00 0.00 63 1013.3
20260905071518 68 0.0 4.0 0.00 0.00 0.00 63 1013.4
20260905070518 68 0.0 5.0 0.00 0.00 0.00 63 1013.4
20260905065538 68 0.0 2.0 0.00 0.00 0.00 64 1013.6
20260905064517 68 0.0 1.0 0.00 0.00 0.00 63 1013.6
20260905063517 67 0.0 3.0 0.00 0.00 0.00 64 1013.8
20260905062517 67 0.0 1.0 0.00 0.00 0.00 65 1013.9
20260905061518 66 0.0 12.0 0.00 0.00 0.00 66 1014.0
20260905060518 66 0.0 5.0 0.00 0.00 0.00 66 1014.1
20260905055517 65 0.0 5.0 0.00 0.00 0.00 65 1014.3
20260905054517 66 0.0 3.0 0.00 0.00 0.00 65 1014.3
20260905053518 67 0.0 3.0 0.00 0.00 0.00 65 1014.3
20260905052518 67 0.0 2.0 0.00 0.00 0.00 63 1014.4
20260905051518 65 0.0 2.0 0.00 0.00 0.00 66 1014.5
20260905050517 65 0.0 3.0 0.00 0.00 0.00 66 1014.8
20260905045537 65 0.0 3.0 0.00 0.00 0.00 65 1014.8
20260905044518 65 0.0 4.0 0.00 0.00 0.00 65 1015.1
20260905043518 64 0.0 3.0 0.00 0.00 0.00 66 1015.2
20260905042517 65 270 2.0 12.0 0.00 0.00 0.00 64 1015.6
20260905041518 65 0.0 2.0 0.00 0.00 0.00 65 1015.6
20260905040517 64 0.0 2.0 0.00 0.00 0.00 66 1015.8
20260905035517 63 0.0 3.0 0.00 0.00 0.00 67 1016.0
20260905034517 63 0.0 5.0 0.00 0.00 0.00 67 1016.1
20260905033518 62 0.0 5.0 0.00 0.00 0.00 69 1016.3
20260905032517 62 0.0 1.0 0.00 0.00 0.00 70 1016.6
20260905031537 62 0.0 2.0 0.00 0.00 0.00 68 1016.8
20260905030517 62 0.0 3.0 0.00 0.00 0.00 68 1016.9
20260905025517 62 0.0 4.0 0.00 0.00 0.00 68 1017.0
20260905024517 62 0.0 2.0 0.00 0.00 0.00 68 1017.1
20260905023517 61 0.0 2.0 0.00 0.00 0.00 69 1017.3
20260905022517 61 0.0 2.0 0.00 0.00 0.00 69 1017.3
20260905021517 60 0.0 3.0 0.00 0.00 0.00 69 1017.6
20260905020538 59 0.0 5.0 0.00 0.00 0.00 71 1017.9
20260905015517 59 0.0 0.0 0.00 0.00 0.00 73 1018.1
20260905014517 58 0.0 1.0 0.00 0.00 0.00 72 1018.2
20260905013545 58 0.0 0.0 0.00 0.00 0.00 73 1018.4
20260905012517 57 0.0 0.0 0.00 0.00 0.00 74 1018.6